Location: Saluda
(35.2377°N, 82.3468°W)
Time: 19:17:44
(UTC+00:00)

Vanguard 3 - Pass Details

Date: 11 October 2022
Orbit: 509 x 3255 km, 33.3° (Epoch: 01 December)

Event Time Altitude Azimuth Distance (km) Brightness Sun altitude
Rises 10:07:55 0° 226° (SW) 3,468 - -18.0°
Reaches altitude 10° 10:11:16 10° 213° (SSW) 2,192 - -17.3°
Exits shadow 10:11:42 12° 210° (SSW) 2,045 8.9 -17.2°
Maximum altitude 10:15:02 23° 161° (SSE) 1,259 8.3 -16.6°
Drops below altitude 10° 10:18:05 10° 106° (ESE) 1,754 10.0 -15.9°
Sets 10:20:26 0° 90° (E) 2,600 11.7 -15.4°
